sat.trackr.live / text

‹ back to catalog

STARLINK-31654

NORAD 59858 · 2024-098A

PAYLOAD ACTIVE UNKNOWN

§ Identity

Operator
Country
US
Launch date
2024-05-24
Launch site
AFETR
Launch vehicle
Mass (kg)
RCS (m²)

Purposes: comms

External: N2YO · Heavens-Above · Gunter

§ Orbital elements

Epoch: 2026-05-25T04:51:18.739008Z

Period
94.27 min
Inclination
43.0031°
Eccentricity
0.0001042
Mean motion
15.27594224 rev/d
Perigee alt
482.3 km
Apogee alt
483.7 km
Semi-major
6,861.1 km
B*
1.0112e-4
RAAN
198.4698°
Arg perigee
283.0185°
Mean anomaly
77.0550°
Rev number
11,362

§ Raw data

STARLINK-316541 59858U 24098A   26145.20230022  .00002523  00000+0  10112-3 0  99962 59858  43.0031 198.4698 0001042 283.0185  77.0550 15.27594224113625

JSON: /api/v1/satellites/59858 · /tle

For live sub-satellite position, see the globe view (requires WebGL).

§ Visibility from observer

Set your observer location to see the next 7 days of passes ≥ 10°. The values pass through the URL so the page stays shareable.

No JS? Fill the form by hand. The geolocation button needs JavaScript.